Location: Unspecified
(42.3650°N, 71.1030°W)
Time: 05:14:20
(UTC+00:00)

Explorer 11/Cluster Stage 4 - Pass Details

Date: 29 June 2024
Orbit: 465 x 1216 km, 28.8° (Epoch: 13 July)

Event Time Altitude Azimuth Distance (km) Brightness Sun altitude
Rises 01:20:34 0° 254° (WSW) 3,978 10.7 -8.9°
Reaches altitude 10° 01:23:48 10° 243° (WSW) 3,086 9.9 -9.3°
Maximum altitude 01:30:04 27° 190° (S) 2,148 8.5 -10.1°
Enters shadow 01:35:30 13° 141° (SE) 2,901 8.8 -10.8°
Drops below altitude 10° 01:36:26 10° 137° (SE) 3,129 - -10.9°
Sets 01:39:43 0° 126° (SE) 4,043 - -11.4°
